Location: Hamburg
(53.5500°N, 10.0000°E)
Time: 08:18:56
(UTC+01:00)

A-11 Canister half - All Passes

Search period start: 03 March 2015 00:00
Search period end: 13 March 2015 00:00
Orbit: 1527 x 1683 km, 47.3° (Epoch: 01 March)

Date Brightness Start Highest point End Pass type
(mag) Time Alt. Az. Time Alt. Az. Time Alt. Az.
03 Mar - 00:28:06 10° SW 00:37:13 51° SSE 00:46:08 10° E visible
03 Mar - 02:32:09 10° W 02:41:25 60° S 02:50:30 10° ESE visible
03 Mar - 04:36:48 10° W 04:45:26 42° SSW 04:53:55 10° SE visible
03 Mar - 06:42:49 10° W 06:48:33 18° SW 06:53:55 10° SSW daylight
03 Mar - 22:05:01 10° S 22:12:12 25° SE 22:19:28 10° E night (unlit)
04 Mar - 00:06:37 10° SW 00:15:43 50° SSE 00:24:37 10° E visible
04 Mar - 02:10:37 10° W 02:19:55 60° S 02:29:00 10° ESE visible
04 Mar - 04:15:15 10° W 04:23:57 43° SSW 04:32:29 10° SE visible
04 Mar - 06:21:08 10° W 06:27:06 19° SW 06:32:45 10° S visible
04 Mar - 21:43:42 10° S 21:50:45 24° SE 21:57:53 10° E visible
04 Mar - 23:45:07 10° SW 23:54:13 49° SSE 00:03:07 10° E visible
05 Mar - 01:49:04 10° WSW 01:58:23 61° S 02:07:30 10° ESE visible
05 Mar - 03:53:42 10° W 04:02:28 45° SSW 04:11:03 10° SE visible
05 Mar - 05:59:27 10° W 06:05:41 20° SW 06:11:33 10° S visible
05 Mar - 21:22:24 10° S 21:29:17 23° SE 21:36:16 10° E visible
05 Mar - 23:23:37 10° SW 23:32:43 48° SSE 23:41:35 10° E night (unlit)
06 Mar - 01:27:32 10° WSW 01:36:53 61° S 01:46:01 10° ESE visible
06 Mar - 03:32:09 10° W 03:40:59 46° SSW 03:49:37 10° SE visible
06 Mar - 05:37:47 10° W 05:44:14 21° SW 05:50:21 10° S visible
06 Mar - 21:01:07 10° S 21:07:49 22° SE 21:14:39 10° E visible
06 Mar - 23:02:08 10° SW 23:11:13 47° SSE 23:20:04 10° E visible
07 Mar - 01:06:00 10° WSW 01:15:22 61° S 01:24:30 10° ESE visible
07 Mar - 03:10:36 10° W 03:19:30 47° SSW 03:28:11 10° SE visible
07 Mar - 05:16:08 10° W 05:22:47 22° SW 05:29:07 10° S visible
07 Mar - 20:39:51 10° S 20:46:21 21° SE 20:53:02 10° E visible
07 Mar - 22:40:40 10° SW 22:49:43 46° SSE 22:58:33 10° E visible
08 Mar - 00:44:27 10° WSW 00:53:51 61° S 01:03:00 10° ESE visible
08 Mar - 02:49:03 10° W 02:58:01 48° SSW 03:06:44 10° SE visible
08 Mar - 04:54:30 10° W 05:01:21 23° SW 05:07:52 10° S visible
08 Mar - 20:18:36 10° S 20:24:54 20° SE 20:31:24 10° E visible
08 Mar - 22:19:11 10° SW 22:28:13 45° SSE 22:37:02 10° E visible
09 Mar - 00:22:55 10° WSW 00:32:20 61° S 00:41:30 10° ESE visible
09 Mar - 02:27:30 10° W 02:36:31 49° SSW 02:45:18 10° SE visible
09 Mar - 04:32:52 10° W 04:39:54 24° SW 04:46:37 10° S visible
09 Mar - 19:57:22 10° S 20:03:26 19° SE 20:09:45 10° E visible
09 Mar - 21:57:43 10° SW 22:06:43 44° SSE 22:15:31 10° E visible
10 Mar - 00:01:22 10° WSW 00:10:50 61° S 00:20:01 10° E visible
10 Mar - 02:05:57 10° W 02:15:01 50° SSW 02:23:51 10° SE visible
10 Mar - 04:11:15 10° W 04:18:27 25° SW 04:25:21 10° S visible
10 Mar - 19:36:09 10° S 19:41:58 18° SE 19:48:04 10° E visible
10 Mar - 21:36:15 10° SW 21:45:13 43° SSE 21:53:59 10° E visible
10 Mar - 23:39:50 10° WSW 23:49:18 60° S 23:58:31 10° E visible
11 Mar - 01:44:24 10° W 01:53:31 51° SSW 02:02:24 10° SE visible
11 Mar - 03:49:38 10° W 03:57:00 26° SW 04:04:04 10° S visible
11 Mar - 19:14:58 10° SSE 19:20:31 17° SE 19:26:23 10° E visible
11 Mar - 21:14:47 10° SW 21:23:43 42° SSE 21:32:28 10° E visible
11 Mar - 23:18:17 10° WSW 23:27:48 60° S 23:37:00 10° E visible
12 Mar - 01:22:50 10° W 01:32:01 52° SSW 01:40:56 10° SE visible
12 Mar - 03:28:01 10° W 03:35:32 27° SW 03:42:46 10° S visible
12 Mar - 18:53:48 10° SSE 18:59:03 16° SE 19:04:40 10° E visible
12 Mar - 20:53:19 10° SW 21:02:14 41° SSE 21:10:56 10° E visible
12 Mar - 22:56:45 10° WSW 23:06:16 60° S 23:15:30 10° E visible
